Weather in Ivashkivka

Ukraine / Chernihiv Region     51°41′59″N   31°26′42″E
temp.,
°C
wind,
m/s
gust,
m/s
humid.,
%
clouds,
%
prec.,
mm/h
press.,
hPa
HPBL,
m
12 april, mon
mon1200:00+7e22681 0.0 102819
03:00+6ene3371100 0.0 102838
06:00+5ne3473100 0.0 102748
09:00+9ene4761100 0.0 1026293
12:00+10e5668100 0.6 1024624
15:00+9e4585100 2.6 1023450
18:00+11e2580100 0.3 1022374
21:00+10n2290100 0.3 102230
13 april, tue
tue1300:00+9n229198 0.0 102138
03:00+9n239384 0.0 102042
06:00+8nne2295100 0.0 102020
09:00+9ene2292100 0.0 102046
12:00+11se3690100 0.0 1020307
15:00+14sse457499 0.1 1019890
18:00+11sse4891100 0.3 1019326
21:00+10sse3796100 0.3 1019270
14 april, wed
wed1400:00+9sse2795100 0.0 1019245
03:00+8se2496100 0.0 101893
06:00+8se2596100 0.0 1017125
09:00+10se3789100 0.1 1017337
12:00+12sse4777100 0.1 1017646
15:00+15sse465887 0.7 10151385
18:00+14sse346542 0.6 1015810
21:00+11se1181100 1.1 101636
15 april, thu
thu1500:00+9wnw0086100 0.0 101510
03:00+8e229071 0.0 101514
06:00+8e1192100 0.4 101512
09:00+11ene227999 0.6 1015244
12:00+15e2357100 0.9 10141007
15:00+17ese2447100 1.7 10131900
18:00+14s3563100 0.6 1013244
21:00+11wnw11785 0.7 101311
16 april, fri
fri1600:00+9nne2282100 0.0 101320
03:00+8nne368972 0.0 1012117
06:00+8ne3794100 0.0 1011151
09:00+11ene3681100 0.3 1011351
12:00+11ene2490100 1.2 1012322
15:00+14ese465952 2.0 10111270
18:00+13se456977 0.7 1012565
21:00+9se228517 0.9 101326